,,PA_Meas_PMT16A,,PR_Meas_QMR101_102,,RH_Meas_QMH101,,SR_Meas_QMS101,,TA_Meas_QMH101,,GenWind,,GenWind,
time,status,PA,status,PR,status,RH,status,SR,status,TA,status,DirAvg,status,SpdAvg,
2013-06-11, 00:00:04,VALID,917.418,VALID,0,VALID,96.1465,VALID,0,VALID,18.8839,VALID,329,VALID,0,
2013-06-11, 00:01:04,VALID,917.437,VALID,0,VALID,96.1389,VALID,0.107441,VALID,18.8839,VALID,329,VALID,0,
2013-06-11, 00:02:04,VALID,917.433,VALID,0,VALID,96.1008,VALID,0.107441,VALID,18.8434,VALID,332,VALID,0.396094,
2013-06-11, 00:03:04,VALID,917.397,VALID,0,VALID,96.0703,VALID,0,VALID,18.8853,VALID,5,VALID,0.691797,
2013-06-11, 00:04:04,VALID,917.397,VALID,0,VALID,96.0855,VALID,0,VALID,18.8644,VALID,282,VALID,0.635938,
2013-06-11, 00:05:04,VALID,917.415,VALID,0,VALID,96.0093,VALID,0.107441,VALID,18.8824,VALID,340,VALID,0.83125,
2013-06-11, 00:06:04,VALID,917.409,VALID,0,VALID,96.0093,VALID,0,VALID,18.9034,VALID,20,VALID,1.33828,
2013-06-11, 00:07:04,VALID,917.376,VALID,0,VALID,95.9254,VALID,0,VALID,18.8839,VALID,357,VALID,1.04336,
2013-06-11, 00:08:04,VALID,917.35,VALID,0,VALID,95.895,VALID,0,VALID,18.8839,VALID,345,VALID,0.832031,
2013-06-11, 00:09:04,VALID,917.356,VALID,0,VALID,95.8492,VALID,0.107441,VALID,18.9034,VALID,347,VALID,0.684766,
2013-06-11, 00:10:04,VALID,917.389,VALID,0,VALID,95.773,VALID,0.107441,VALID,18.9034,VALID,1,VALID,1.26289,
2013-06-11, 00:11:04,VALID,917.341,VALID,0,VALID,95.7349,VALID,0.107441,VALID,18.9034,VALID,16,VALID,0.768359,
2013-06-11, 00:12:04,VALID,917.319,VALID,0,VALID,95.7196,VALID,0,VALID,18.8839,VALID,359,VALID,0.817187,
2013-06-11, 00:13:04,VALID,917.354,VALID,0,VALID,95.7272,VALID,0.107441,VALID,18.8839,VALID,347,VALID,0.475781,
2013-06-11, 00:14:04,VALID,917.301,VALID,0,VALID,95.7425,VALID,0.107441,VALID,18.8644,VALID,346,VALID,0.766016,
2013-06-11, 00:15:04,VALID,917.307,VALID,0,VALID,95.7654,VALID,0.107441,VALID,18.8853,VALID,352,VALID,0.732813,
2013-06-11, 00:16:04,VALID,917.247,VALID,0,VALID,95.8035,VALID,0.107441,VALID,18.8449,VALID,352,VALID,0.533594,
2013-06-11, 00:17:04,VALID,917.236,VALID,0,VALID,95.8873,VALID,0.107441,VALID,18.8449,VALID,355,VALID,1.08086,
2013-06-11, 00:18:04,VALID,917.243,VALID,0,VALID,95.895,VALID,0.107441,VALID,18.8059,VALID,349,VALID,0.370703,
2013-06-11, 00:19:04,VALID,917.218,VALID,0,VALID,95.9712,VALID,0.107441,VALID,18.8254,VALID,351,VALID,0.827344,
2013-06-11, 00:20:04,VALID,917.199,VALID,0,VALID,95.9864,VALID,0.107441,VALID,18.7864,VALID,335,VALID,1.20508,
2013-06-11, 00:21:04,VALID,917.186,VALID,0,VALID,96.0322,VALID,0.107441,VALID,18.7669,VALID,359,VALID,0.751172,
2013-06-11, 00:22:04,VALID,917.138,VALID,0,VALID,96.1313,VALID,0.107441,VALID,18.7474,VALID,20,VALID,1.13281,
2013-06-11, 00:23:04,VALID,917.116,VALID,0,VALID,96.2228,VALID,0.107441,VALID,18.7669,VALID,348,VALID,1.00039,
2013-06-11, 00:24:04,VALID,917.144,VALID,0,VALID,96.2685,VALID,0.107441,VALID,18.7864,VALID,351,VALID,1.23984,
2013-06-11, 00:25:04,VALID,917.143,VALID,0,VALID,96.3142,VALID,0,VALID,18.7669,VALID,343,VALID,0.677734,
2013-06-11, 00:26:04,VALID,917.129,VALID,0,VALID,96.3752,VALID,0.107441,VALID,18.7655,VALID,353,VALID,0.208594,
2013-06-11, 00:27:04,VALID,917.115,VALID,0,VALID,96.4057,VALID,0.107441,VALID,18.7669,VALID,22,VALID,0.932031,
2013-06-11, 00:28:04,VALID,917.072,VALID,0,VALID,96.4515,VALID,0,VALID,18.7669,VALID,327,VALID,0.924219,
2013-06-11, 00:29:04,VALID,917.05,VALID,0,VALID,96.4743,VALID,0.107441,VALID,18.7474,VALID,335,VALID,1.48359,
2013-06-11, 00:30:04,VALID,917.103,VALID,0,VALID,96.4972,VALID,0,VALID,18.7474,VALID,336,VALID,0.978516,
2013-06-11, 00:31:04,VALID,917.065,VALID,0,VALID,96.5201,VALID,0.107441,VALID,18.7084,VALID,14,VALID,0.940625,
2013-06-11, 00:32:04,VALID,917.092,VALID,0,VALID,96.5734,VALID,0,VALID,18.7683,VALID,9,VALID,0.985937,
2013-06-11, 00:33:04,VALID,917.091,VALID,0,VALID,96.6039,VALID,0,VALID,18.7669,VALID,352,VALID,1.19375,
2013-06-11, 00:34:04,VALID,917.082,VALID,0,VALID,96.6268,VALID,0.107441,VALID,18.7669,VALID,4,VALID,1.12578,
2013-06-11, 00:35:04,VALID,917.067,VALID,0,VALID,96.6192,VALID,0,VALID,18.7669,VALID,5,VALID,1.4668,
2013-06-11, 00:36:04,VALID,917.053,VALID,0,VALID,96.6497,VALID,0,VALID,18.7683,VALID,3,VALID,1.05703,
2013-06-11, 00:37:04,VALID,917.046,VALID,0,VALID,96.642,VALID,0,VALID,18.7669,VALID,341,VALID,0.959766,
2013-06-11, 00:38:04,VALID,917.065,VALID,0,VALID,96.6725,VALID,0.107441,VALID,18.7279,VALID,352,VALID,0.932422,
2013-06-11, 00:39:04,VALID,917.078,VALID,0,VALID,96.6497,VALID,0,VALID,18.7279,VALID,347,VALID,0.825391,
2013-06-11, 00:40:04,VALID,917.078,VALID,0,VALID,96.6802,VALID,0,VALID,18.7084,VALID,328,VALID,0.986719,
2013-06-11, 00:41:04,VALID,917.077,VALID,0,VALID,96.6802,VALID,0,VALID,18.7084,VALID,339,VALID,0.457422,
2013-06-11, 00:42:04,VALID,917.09,VALID,0,VALID,96.7107,VALID,0,VALID,18.7279,VALID,17,VALID,1.29062,
2013-06-11, 00:43:04,VALID,917.083,VALID,0,VALID,96.7259,VALID,0,VALID,18.7279,VALID,338,VALID,0.949609,
2013-06-11, 00:44:04,VALID,917.094,VALID,0,VALID,96.7411,VALID,0,VALID,18.7084,VALID,325,VALID,0.834375,
2013-06-11, 00:45:04,VALID,917.102,VALID,0,VALID,96.7335,VALID,0,VALID,18.7293,VALID,342,VALID,0.495313,
2013-06-11, 00:46:04,VALID,917.124,VALID,0,VALID,96.7793,VALID,0,VALID,18.7488,VALID,342,VALID,0.0710938,
2013-06-11, 00:47:04,VALID,917.108,VALID,0,VALID,96.7716,VALID,0,VALID,18.7293,VALID,338,VALID,0.279297,
2013-06-11, 00:48:04,VALID,917.084,VALID,0,VALID,96.764,VALID,0,VALID,18.7503,VALID,321,VALID,0.0730469,
2013-06-11, 00:49:04,VALID,917.034,VALID,0,VALID,96.7945,VALID,0,VALID,18.7503,VALID,321,VALID,0,
2013-06-11, 00:50:04,VALID,917.024,VALID,0,VALID,96.7945,VALID,0,VALID,18.7488,VALID,321,VALID,0.0941406,
2013-06-11, 00:51:04,VALID,917.01,VALID,0,VALID,96.8098,VALID,0,VALID,18.7488,VALID,321,VALID,0,
2013-06-11, 00:52:04,VALID,916.99,VALID,0,VALID,96.8326,VALID,0,VALID,18.7488,VALID,321,VALID,0,
2013-06-11, 00:53:04,VALID,916.992,VALID,0,VALID,96.8479,VALID,0,VALID,18.7697,VALID,324,VALID,0.271484,
2013-06-11, 00:54:04,VALID,916.964,VALID,0,VALID,96.8631,VALID,0,VALID,18.8087,VALID,324,VALID,0,
2013-06-11, 00:55:04,VALID,916.935,VALID,0,VALID,96.8326,VALID,0,VALID,18.7878,VALID,324,VALID,0,
2013-06-11, 00:56:04,VALID,916.895,VALID,0,VALID,96.8326,VALID,0,VALID,18.7878,VALID,324,VALID,0,
2013-06-11, 00:57:04,VALID,916.9,VALID,0,VALID,96.8784,VALID,0,VALID,18.8073,VALID,324,VALID,0,
2013-06-11, 00:58:04,VALID,916.906,VALID,0,VALID,96.8555,VALID,0,VALID,18.7683,VALID,324,VALID,0,
2013-06-11, 00:59:04,VALID,916.909,VALID,0,VALID,96.8784,VALID,0,VALID,18.7878,VALID,324,VALID,0,
2013-06-11, 01:00:04,VALID,916.895,VALID,0,VALID,96.8707,VALID,0,VALID,18.7864,VALID,324,VALID,0,
2013-06-11, 01:01:04,VALID,916.891,VALID,0,VALID,96.886,VALID,0,VALID,18.7474,VALID,324,VALID,0,
2013-06-11, 01:02:04,VALID,916.903,VALID,0,VALID,96.8707,VALID,0,VALID,18.7279,VALID,324,VALID,0.0585938,
2013-06-11, 01:03:04,VALID,916.887,VALID,0,VALID,96.8631,VALID,0,VALID,18.7474,VALID,325,VALID,0,
2013-06-11, 01:04:04,VALID,916.862,VALID,0,VALID,96.886,VALID,0,VALID,18.7474,VALID,325,VALID,0,
2013-06-11, 01:05:04,VALID,916.899,VALID,0,VALID,96.886,VALID,0,VALID,18.7474,VALID,325,VALID,0,
2013-06-11, 01:06:04,VALID,916.862,VALID,0,VALID,96.8936,VALID,0.107441,VALID,18.7474,VALID,325,VALID,0.0585938,
2013-06-11, 01:07:04,VALID,916.863,VALID,0,VALID,96.9012,VALID,0,VALID,18.7474,VALID,325,VALID,0.00195313,
2013-06-11, 01:08:04,VALID,916.811,VALID,0,VALID,96.8936,VALID,0,VALID,18.7279,VALID,324,VALID,0,
2013-06-11, 01:09:04,VALID,916.868,VALID,0,VALID,96.8784,VALID,0,VALID,18.7293,VALID,330,VALID,0.0699219,
2013-06-11, 01:10:04,VALID,916.844,VALID,0,VALID,96.8936,VALID,0,VALID,18.7084,VALID,326,VALID,0,
2013-06-11, 01:11:05,VALID,916.861,VALID,0,VALID,96.8936,VALID,0,VALID,18.6889,VALID,263,VALID,0.855469,
2013-06-11, 01:12:05,VALID,916.825,VALID,0,VALID,96.886,VALID,0,VALID,18.7084,VALID,256,VALID,0.130859,
2013-06-11, 01:13:05,VALID,916.796,VALID,0,VALID,96.886,VALID,0.107441,VALID,18.7279,VALID,256,VALID,0.0015625,
2013-06-11, 01:14:05,VALID,916.792,VALID,0,VALID,96.9012,VALID,0.107441,VALID,18.7669,VALID,321,VALID,0.309375,
2013-06-11, 01:15:05,VALID,916.771,VALID,0,VALID,96.886,VALID,0,VALID,18.7892,VALID,241,VALID,0.846484,
2013-06-11, 01:16:05,VALID,916.775,VALID,0,VALID,96.886,VALID,0,VALID,18.8282,VALID,254,VALID,0.335156,
2013-06-11, 01:17:05,VALID,916.745,VALID,0,VALID,96.8555,VALID,0,VALID,18.8073,VALID,241,VALID,0.754297,
2013-06-11, 01:18:05,VALID,916.735,VALID,0,VALID,96.8174,VALID,0,VALID,18.8268,VALID,263,VALID,0.326953,
2013-06-11, 01:19:05,VALID,916.722,VALID,0,VALID,96.7945,VALID,0,VALID,18.8463,VALID,241,VALID,0.260156,
2013-06-11, 01:20:05,VALID,916.661,VALID,0,VALID,96.7411,VALID,0,VALID,18.8463,VALID,283,VALID,1.0168,
2013-06-11, 01:21:05,VALID,916.676,VALID,0,VALID,96.703,VALID,0,VALID,18.9062,VALID,289,VALID,0.923437,
2013-06-11, 01:22:05,VALID,916.667,VALID,0,VALID,96.6725,VALID,0,VALID,18.9633,VALID,320,VALID,0.116797,
2013-06-11, 01:23:05,VALID,916.63,VALID,0,VALID,96.6039,VALID,0,VALID,19.0037,VALID,227,VALID,0.543359,
2013-06-11, 01:24:05,VALID,916.57,VALID,0,VALID,96.5048,VALID,0,VALID,19.0037,VALID,219,VALID,1.01094,
2013-06-11, 01:25:05,VALID,916.565,VALID,0,VALID,96.4515,VALID,0,VALID,19.0218,VALID,234,VALID,0.919922,
2013-06-11, 01:26:05,VALID,916.544,VALID,0,VALID,96.3447,VALID,0,VALID,18.9828,VALID,247,VALID,2.22266,
2013-06-11, 01:27:05,VALID,916.521,VALID,0,VALID,96.238,VALID,0,VALID,19.0218,VALID,249,VALID,2.3207,
2013-06-11, 01:28:05,VALID,916.514,VALID,0,VALID,96.0627,VALID,0,VALID,19.1207,VALID,238,VALID,0.859375,
2013-06-11, 01:29:05,VALID,916.489,VALID,0,VALID,95.8873,VALID,0,VALID,19.1388,VALID,198,VALID,0.980859,
2013-06-11, 01:30:05,VALID,916.472,VALID,0,VALID,95.7044,VALID,0,VALID,19.1373,VALID,228,VALID,0.728906,
2013-06-11, 01:31:05,VALID,916.476,VALID,0,VALID,95.6129,VALID,0.107441,VALID,19.1178,VALID,26,VALID,1.11563,
2013-06-11, 01:32:05,VALID,916.486,VALID,0,VALID,95.4909,VALID,0.107441,VALID,19.0983,VALID,273,VALID,0.589453,
2013-06-11, 01:33:05,VALID,916.469,VALID,0,VALID,95.3308,VALID,0.107441,VALID,19.0788,VALID,59,VALID,0.938672,
2013-06-11, 01:34:05,VALID,916.452,VALID,0,VALID,95.2012,VALID,0.107441,VALID,19.0788,VALID,58,VALID,0.189063,
2013-06-11, 01:35:05,VALID,916.469,VALID,0,VALID,95.125,VALID,0.107441,VALID,19.0788,VALID,205,VALID,0.833594,
2013-06-11, 01:36:05,VALID,916.452,VALID,0,VALID,95.003,VALID,0,VALID,19.0593,VALID,268,VALID,1.82031,
2013-06-11, 01:37:05,VALID,916.457,VALID,0,VALID,95.0183,VALID,0,VALID,19.0593,VALID,268,VALID,0.569922,
2013-06-11, 01:38:05,VALID,916.47,VALID,0,VALID,95.0411,VALID,0,VALID,19.0788,VALID,357,VALID,0.10625,
2013-06-11, 01:39:05,VALID,916.46,VALID,0,VALID,95.0106,VALID,0,VALID,19.0998,VALID,75,VALID,0.196875,
2013-06-11, 01:40:05,VALID,916.441,VALID,0,VALID,94.9496,VALID,0.107441,VALID,19.0788,VALID,300,VALID,1.00664,
2013-06-11, 01:41:05,VALID,916.4,VALID,0,VALID,94.8734,VALID,0,VALID,19.1178,VALID,282,VALID,0.240625,
2013-06-11, 01:42:05,VALID,916.421,VALID,0,VALID,94.7438,VALID,0,VALID,19.0983,VALID,258,VALID,1.20664,
2013-06-11, 01:43:05,VALID,916.443,VALID,0,VALID,94.7286,VALID,0,VALID,19.1193,VALID,266,VALID,0.0121094,
2013-06-11, 01:44:05,VALID,916.432,VALID,0,VALID,94.6828,VALID,0,VALID,19.0998,VALID,6,VALID,0.714453,
2013-06-11, 01:45:05,VALID,916.416,VALID,0,VALID,94.7362,VALID,0,VALID,19.0788,VALID,228,VALID,0.789063,
2013-06-11, 01:46:05,VALID,916.384,VALID,0,VALID,94.7133,VALID,0,VALID,19.0593,VALID,289,VALID,1.01484,
2013-06-11, 01:47:05,VALID,916.402,VALID,0,VALID,94.7896,VALID,0,VALID,19.0593,VALID,284,VALID,0.191797,
2013-06-11, 01:48:05,VALID,916.39,VALID,0,VALID,94.8887,VALID,0,VALID,19.0593,VALID,257,VALID,0.237109,
2013-06-11, 01:49:05,VALID,916.35,VALID,0,VALID,94.9496,VALID,0,VALID,19.0593,VALID,259,VALID,0.332031,
2013-06-11, 01:50:05,VALID,916.362,VALID,0,VALID,95.003,VALID,0.107441,VALID,19.0593,VALID,289,VALID,0.669922,
2013-06-11, 01:51:05,VALID,916.358,VALID,0,VALID,95.0259,VALID,0,VALID,19.0593,VALID,303,VALID,0.160156,
2013-06-11, 01:52:05,VALID,916.315,VALID,0,VALID,95.0411,VALID,0,VALID,19.0593,VALID,232,VALID,0.369141,
2013-06-11, 01:53:05,VALID,916.325,VALID,0,VALID,94.9496,VALID,0,VALID,19.0593,VALID,279,VALID,0.796875,
2013-06-11, 01:54:05,VALID,916.287,VALID,0,VALID,94.9573,VALID,0.107441,VALID,19.0788,VALID,277,VALID,0.0953125,
2013-06-11, 01:55:05,VALID,916.259,VALID,0,VALID,94.9725,VALID,0,VALID,19.0998,VALID,259,VALID,0.090625,
2013-06-11, 01:56:05,VALID,916.269,VALID,0,VALID,94.9801,VALID,0,VALID,19.0998,VALID,270,VALID,0.464063,
2013-06-11, 01:57:05,VALID,916.258,VALID,0,VALID,94.9801,VALID,0,VALID,19.0788,VALID,121,VALID,0.667188,
2013-06-11, 01:58:05,VALID,916.238,VALID,0,VALID,94.9725,VALID,0.107441,VALID,19.0593,VALID,255,VALID,1.40156,
2013-06-11, 01:59:05,VALID,916.193,VALID,0,VALID,94.9573,VALID,0,VALID,19.0593,VALID,222,VALID,0.902344,
2013-06-11, 02:00:05,VALID,916.16,VALID,0,VALID,94.9954,VALID,0,VALID,19.0998,VALID,360,VALID,0.419922,
2013-06-11, 02:01:05,VALID,916.174,VALID,0,VALID,95.003,VALID,0,VALID,19.0983,VALID,287,VALID,0.0582031,
2013-06-11, 02:02:05,VALID,916.118,VALID,0,VALID,94.9878,VALID,0.107441,VALID,19.0788,VALID,288,VALID,0.0460938,
2013-06-11, 02:03:05,VALID,916.103,VALID,0,VALID,94.942,VALID,0,VALID,19.0788,VALID,231,VALID,0.803906,
2013-06-11, 02:04:05,VALID,916.086,VALID,0,VALID,94.8887,VALID,0.107441,VALID,19.0983,VALID,221,VALID,0.745313,
2013-06-11, 02:05:05,VALID,916.078,VALID,0,VALID,94.8277,VALID,0,VALID,19.1178,VALID,215,VALID,0.392969,
2013-06-11, 02:06:05,VALID,916.07,VALID,0,VALID,94.8353,VALID,0,VALID,19.1178,VALID,212,VALID,0.271484,
2013-06-11, 02:07:05,VALID,916.052,VALID,0,VALID,94.7209,VALID,0,VALID,19.1388,VALID,158,VALID,0.469922,
2013-06-11, 02:08:05,VALID,916.014,VALID,0,VALID,94.6752,VALID,0,VALID,19.1373,VALID,148,VALID,0.425,
2013-06-11, 02:09:05,VALID,916.029,VALID,0,VALID,94.6066,VALID,0,VALID,19.1568,VALID,251,VALID,0.021875,
2013-06-11, 02:10:05,VALID,915.99,VALID,0,VALID,94.6142,VALID,0.107441,VALID,19.1763,VALID,199,VALID,0.00585938,
2013-06-11, 02:11:05,VALID,915.984,VALID,0,VALID,94.4999,VALID,0,VALID,19.1568,VALID,241,VALID,0.575391,
2013-06-11, 02:12:05,VALID,915.935,VALID,0,VALID,94.4313,VALID,0.107441,VALID,19.1568,VALID,187,VALID,0.456641,
2013-06-11, 02:13:05,VALID,915.945,VALID,0,VALID,94.3626,VALID,0,VALID,19.1973,VALID,197,VALID,0.475391,
2013-06-11, 02:14:05,VALID,915.913,VALID,0,VALID,94.294,VALID,0,VALID,19.1973,VALID,95,VALID,0.110156,
2013-06-11, 02:15:05,VALID,915.892,VALID,0,VALID,94.2635,VALID,0,VALID,19.1763,VALID,106,VALID,0.100781,
2013-06-11, 02:16:05,VALID,915.882,VALID,0,VALID,94.2635,VALID,0,VALID,19.1778,VALID,160,VALID,0.840234,
2013-06-11, 02:17:05,VALID,915.841,VALID,0,VALID,94.2483,VALID,0,VALID,19.1583,VALID,152,VALID,0.442969,
2013-06-11, 02:18:05,VALID,915.889,VALID,0,VALID,94.2788,VALID,0,VALID,19.1373,VALID,98,VALID,0.202734,
2013-06-11, 02:19:05,VALID,915.898,VALID,0,VALID,94.3245,VALID,0,VALID,19.1373,VALID,101,VALID,0.854297,
2013-06-11, 02:20:05,VALID,915.862,VALID,0,VALID,94.3626,VALID,0,VALID,19.1373,VALID,31,VALID,0.464453,
2013-06-11, 02:21:05,VALID,915.847,VALID,0,VALID,94.3703,VALID,0,VALID,19.1178,VALID,143,VALID,0.463281,
2013-06-11, 02:22:05,VALID,915.842,VALID,0,VALID,94.4313,VALID,0,VALID,19.1178,VALID,163,VALID,0.558984,
2013-06-11, 02:23:05,VALID,915.808,VALID,0,VALID,94.4389,VALID,0,VALID,19.1178,VALID,96,VALID,0.639063,
2013-06-11, 02:24:05,VALID,915.798,VALID,0,VALID,94.5532,VALID,0,VALID,19.1193,VALID,42,VALID,0.736719,
2013-06-11, 02:25:05,VALID,915.79,VALID,0,VALID,94.5837,VALID,0,VALID,19.0983,VALID,76,VALID,0.855078,
2013-06-11, 02:26:05,VALID,915.767,VALID,0,VALID,94.6295,VALID,0,VALID,19.0983,VALID,167,VALID,0.7625,
2013-06-11, 02:27:05,VALID,915.775,VALID,0,VALID,94.6828,VALID,0,VALID,19.0788,VALID,197,VALID,0.278125,
2013-06-11, 02:28:05,VALID,915.775,VALID,0,VALID,94.7514,VALID,0,VALID,19.0998,VALID,80,VALID,0.588281,
2013-06-11, 02:29:05,VALID,915.752,VALID,0,VALID,94.7591,VALID,0,VALID,19.0998,VALID,282,VALID,0.0773437,
2013-06-11, 02:30:05,VALID,915.748,VALID,0,VALID,94.7896,VALID,0,VALID,19.0788,VALID,283,VALID,0.405859,
2013-06-11, 02:31:05,VALID,915.749,VALID,0,VALID,94.8429,VALID,0,VALID,19.0983,VALID,284,VALID,0.114844,
2013-06-11, 02:32:05,VALID,915.746,VALID,0,VALID,94.82,VALID,0,VALID,19.1193,VALID,49,VALID,0.200781,
2013-06-11, 02:33:05,VALID,915.781,VALID,0,VALID,94.881,VALID,0.107441,VALID,19.0593,VALID,48,VALID,0.0984375,
2013-06-11, 02:34:05,VALID,915.755,VALID,0,VALID,94.8963,VALID,0,VALID,19.0608,VALID,54,VALID,0.101563,
2013-06-11, 02:35:05,VALID,915.763,VALID,0,VALID,94.9725,VALID,0,VALID,19.0398,VALID,55,VALID,0.201172,
2013-06-11, 02:36:05,VALID,915.721,VALID,0,VALID,94.9801,VALID,0,VALID,19.0398,VALID,89,VALID,0.540234,
2013-06-11, 02:37:05,VALID,915.745,VALID,0,VALID,95.0564,VALID,0,VALID,19.0203,VALID,25,VALID,0.0671875,
2013-06-11, 02:38:05,VALID,915.708,VALID,0,VALID,95.1097,VALID,0.107441,VALID,19.0413,VALID,68,VALID,0.416797,
2013-06-11, 02:39:05,VALID,915.717,VALID,0,VALID,95.1631,VALID,0,VALID,19.0008,VALID,56,VALID,0.728125,
2013-06-11, 02:40:05,VALID,915.699,VALID,0,VALID,95.247,VALID,0,VALID,19.0008,VALID,242,VALID,0.296094,
2013-06-11, 02:41:05,VALID,915.672,VALID,0,VALID,95.247,VALID,0,VALID,19.0023,VALID,242,VALID,0.131641,
2013-06-11, 02:42:05,VALID,915.637,VALID,0,VALID,95.2241,VALID,0,VALID,19.0023,VALID,24,VALID,0.469922,
2013-06-11, 02:43:05,VALID,915.65,VALID,0,VALID,95.3003,VALID,0.107441,VALID,18.9619,VALID,23,VALID,0.546094,
2013-06-11, 02:44:05,VALID,915.645,VALID,0,VALID,95.3461,VALID,0.107441,VALID,18.9619,VALID,297,VALID,0.391797,
2013-06-11, 02:45:05,VALID,915.637,VALID,0,VALID,95.3842,VALID,0,VALID,18.9814,VALID,180,VALID,0.554688,
2013-06-11, 02:46:05,VALID,915.601,VALID,0,VALID,95.3461,VALID,0,VALID,19.0023,VALID,136,VALID,0.429297,
2013-06-11, 02:47:05,VALID,915.579,VALID,0,VALID,95.3156,VALID,0,VALID,19.0023,VALID,77,VALID,0.614062,
2013-06-11, 02:48:05,VALID,915.594,VALID,0,VALID,95.3232,VALID,0,VALID,18.9814,VALID,55,VALID,0.0128906,
2013-06-11, 02:49:05,VALID,915.586,VALID,0,VALID,95.3613,VALID,0,VALID,18.9814,VALID,55,VALID,0.0125,
2013-06-11, 02:50:05,VALID,915.59,VALID,0,VALID,95.3308,VALID,0,VALID,18.9619,VALID,55,VALID,0.214844,
2013-06-11, 02:51:05,VALID,915.563,VALID,0,VALID,95.3689,VALID,0.107441,VALID,18.9424,VALID,55,VALID,0.159375,
2013-06-11, 02:52:05,VALID,915.548,VALID,0,VALID,95.3918,VALID,0,VALID,18.9633,VALID,119,VALID,0.344531,
2013-06-11, 02:53:05,VALID,915.541,VALID,0,VALID,95.4452,VALID,0.107441,VALID,18.9633,VALID,119,VALID,0.0746094,
2013-06-11, 02:54:05,VALID,915.488,VALID,0,VALID,95.4528,VALID,0.107441,VALID,18.9424,VALID,153,VALID,0.25,
2013-06-11, 02:55:05,VALID,915.501,VALID,0,VALID,95.4833,VALID,0.107441,VALID,18.9424,VALID,141,VALID,0.00585938,
2013-06-11, 02:56:05,VALID,915.499,VALID,0,VALID,95.4604,VALID,0,VALID,18.9229,VALID,143,VALID,0.124609,
2013-06-11, 02:57:05,VALID,915.456,VALID,0,VALID,95.4833,VALID,0.107441,VALID,18.9229,VALID,183,VALID,0.925391,
2013-06-11, 02:58:05,VALID,915.427,VALID,0,VALID,95.5138,VALID,0,VALID,18.9438,VALID,81,VALID,0.973047,
2013-06-11, 02:59:05,VALID,915.428,VALID,0,VALID,95.5214,VALID,0,VALID,18.9229,VALID,154,VALID,0.637891,
2013-06-11, 03:00:05,VALID,915.456,VALID,0,VALID,95.59,VALID,0,VALID,18.9452,VALID,193,VALID,0.805078,
2013-06-11, 03:01:05,VALID,915.452,VALID,0,VALID,95.651,VALID,0,VALID,18.9438,VALID,330,VALID,0.608594,
2013-06-11, 03:02:05,VALID,915.432,VALID,0,VALID,95.651,VALID,0,VALID,19.0037,VALID,46,VALID,0.760547,
2013-06-11, 03:03:05,VALID,915.452,VALID,0,VALID,95.6205,VALID,0,VALID,19.0023,VALID,201,VALID,0.495313,
2013-06-11, 03:04:05,VALID,915.438,VALID,0,VALID,95.4833,VALID,0,VALID,19.0427,VALID,118,VALID,0.462891,
2013-06-11, 03:05:05,VALID,915.441,VALID,0,VALID,95.3689,VALID,0,VALID,19.0413,VALID,117,VALID,0.816406,
2013-06-11, 03:06:05,VALID,915.465,VALID,0,VALID,95.3689,VALID,0,VALID,19.0413,VALID,127,VALID,0.411719,
2013-06-11, 03:07:05,VALID,915.394,VALID,0,VALID,95.3842,VALID,0,VALID,19.0413,VALID,51,VALID,1.34648,
2013-06-11, 03:08:05,VALID,915.371,VALID,0,VALID,95.3384,VALID,0,VALID,19.0608,VALID,198,VALID,0.569141,
2013-06-11, 03:09:05,VALID,915.397,VALID,0,VALID,95.2927,VALID,0,VALID,19.0817,VALID,135,VALID,1.0668,
2013-06-11, 03:10:05,VALID,915.39,VALID,0,VALID,95.2851,VALID,0,VALID,19.0608,VALID,138,VALID,0.570313,
2013-06-11, 03:11:05,VALID,915.367,VALID,0,VALID,95.2546,VALID,0,VALID,19.0622,VALID,109,VALID,0.785547,
2013-06-11, 03:12:05,VALID,915.345,VALID,0,VALID,95.2088,VALID,0,VALID,19.0413,VALID,145,VALID,0.794922,
2013-06-11, 03:13:05,VALID,915.341,VALID,0,VALID,95.2012,VALID,0,VALID,19.0608,VALID,221,VALID,0.791406,
2013-06-11, 03:14:05,VALID,915.349,VALID,0,VALID,95.1707,VALID,0,VALID,19.0803,VALID,231,VALID,0.744141,
2013-06-11, 03:15:05,VALID,915.334,VALID,0,VALID,95.1555,VALID,0,VALID,19.0803,VALID,285,VALID,0.867969,
2013-06-11, 03:16:05,VALID,915.348,VALID,0,VALID,95.0869,VALID,0,VALID,19.1207,VALID,224,VALID,0.971875,
2013-06-11, 03:17:05,VALID,915.341,VALID,0,VALID,94.9649,VALID,0,VALID,19.1193,VALID,203,VALID,0.426953,
2013-06-11, 03:18:05,VALID,915.356,VALID,0,VALID,94.8887,VALID,0,VALID,19.1388,VALID,187,VALID,0.702734,
2013-06-11, 03:19:05,VALID,915.346,VALID,0,VALID,94.8277,VALID,0,VALID,19.1987,VALID,352,VALID,0.728516,
2013-06-11, 03:20:05,VALID,915.371,VALID,0,VALID,94.7362,VALID,0,VALID,19.1778,VALID,72,VALID,0.522656,
2013-06-11, 03:21:05,VALID,915.383,VALID,0,VALID,94.6142,VALID,0,VALID,19.1778,VALID,4,VALID,0.560156,
2013-06-11, 03:22:05,VALID,915.386,VALID,0,VALID,94.6142,VALID,0,VALID,19.1973,VALID,4,VALID,0.28125,
2013-06-11, 03:23:05,VALID,915.354,VALID,0,VALID,94.6676,VALID,0,VALID,19.1778,VALID,205,VALID,0.644922,
2013-06-11, 03:24:05,VALID,915.35,VALID,0,VALID,94.6981,VALID,0,VALID,19.1778,VALID,201,VALID,0.616797,
2013-06-11, 03:25:05,VALID,915.352,VALID,0,VALID,94.7667,VALID,0,VALID,19.1973,VALID,15,VALID,0.345313,
2013-06-11, 03:26:05,VALID,915.356,VALID,0,VALID,94.7743,VALID,0,VALID,19.1973,VALID,169,VALID,0.489453,
2013-06-11, 03:27:05,VALID,915.378,VALID,0,VALID,94.7667,VALID,0,VALID,19.2168,VALID,73,VALID,0.165625,
2013-06-11, 03:28:05,VALID,915.303,VALID,0,VALID,94.7438,VALID,0,VALID,19.1973,VALID,153,VALID,1.02734,
2013-06-11, 03:29:05,VALID,915.319,VALID,0,VALID,94.6828,VALID,0,VALID,19.2168,VALID,285,VALID,0.947656,
2013-06-11, 03:30:05,VALID,915.259,VALID,0,VALID,94.7133,VALID,0,VALID,19.2348,VALID,360,VALID,1.20508,
2013-06-11, 03:31:05,VALID,915.313,VALID,0,VALID,94.6828,VALID,0,VALID,19.2543,VALID,270,VALID,0.243359,
2013-06-11, 03:32:05,VALID,915.278,VALID,0,VALID,94.5456,VALID,0,VALID,19.2543,VALID,277,VALID,1.75117,
2013-06-11, 03:33:05,VALID,915.314,VALID,0,VALID,94.4541,VALID,0,VALID,19.2933,VALID,76,VALID,0.747266,
2013-06-11, 03:34:05,VALID,915.255,VALID,0,VALID,94.3398,VALID,0,VALID,19.2933,VALID,135,VALID,0.768359,
2013-06-11, 03:35:05,VALID,915.3,VALID,0,VALID,94.3398,VALID,0,VALID,19.2933,VALID,105,VALID,0.501172,
2013-06-11, 03:36:05,VALID,915.278,VALID,0,VALID,94.3703,VALID,0.107441,VALID,19.2738,VALID,235,VALID,0.666016,
2013-06-11, 03:37:05,VALID,915.294,VALID,0,VALID,94.4541,VALID,0,VALID,19.2753,VALID,205,VALID,0.155469,
2013-06-11, 03:38:05,VALID,915.317,VALID,0,VALID,94.4541,VALID,0,VALID,19.2543,VALID,100,VALID,0.674609,
2013-06-11, 03:39:05,VALID,915.275,VALID,0,VALID,94.5227,VALID,0,VALID,19.2348,VALID,61,VALID,1.63242,
2013-06-11, 03:40:05,VALID,915.318,VALID,0,VALID,94.5913,VALID,0,VALID,19.2348,VALID,283,VALID,0.550391,
2013-06-11, 03:41:05,VALID,915.297,VALID,0,VALID,94.5913,VALID,0.107441,VALID,19.2348,VALID,249,VALID,0.950781,
2013-06-11, 03:42:05,VALID,915.313,VALID,0,VALID,94.6218,VALID,0,VALID,19.2348,VALID,260,VALID,0,